Fort Rucker / Ozark, AL

4:37 AM CST on December 14, 2017 (GMT -0600)
Fort Rucker / Ozark

Weather History for KHEY - February, 2014

Change the Weather History Date:

Thursday, February 13, 2014

  Actual Average (KOZR) Record (KOZR)
Temperature  
Mean Temperature 45 °F -  
Max Temperature 55 °F 62 °F 75 °F (2000)
Min Temperature 35 °F 40 °F 24 °F (2012)
Degree Days  
Heating Degree Days 20    
Moisture  
Dew Point 32 °F    
Average Humidity 71    
Maximum Humidity 96    
Minimum Humidity 33    
Precipitation  
Precipitation 0.01 in - - ()
Sea Level Pressure  
Sea Level Pressure 29.88 in    
Wind  
Wind Speed 7 mph (WNW)    
Max Wind Speed 14 mph    
Max Gust Speed 24 mph    
Visibility 10 miles    
Events Rain    
Averages and records for this station are not official NWS values.
T = Trace of Precipitation, MM = Missing Value Source: NWS Daily Summary

Daily Weather History Graph

Daily Weather History Graph

Search for Another Location

Airport or City:

Trip Planner

Search our weather history database for the weather conditions in past years. The results will help you decide how hot, cold, wet, or windy it might be!

Date:

Astronomy

Feb. 13, 2014 Rise Set
Actual Time 6:25 AM CST 5:28 PM CST
Civil Twilight 6:00 AM CST 5:53 PM CST
Nautical Twilight 5:32 AM CST 6:21 PM CST
Astronomical Twilight 5:04 AM CST 6:49 PM CST
Moon 4:35 PM CST (2/13) 5:17 AM CST (2/13)
Length of Visible Light 11h 52m
Length of Day
11h 02m
Waxing Gibbous, 99% of the Moon is Illuminated
Feb 13
Waxing Gibbous
Feb 14
Full
Feb 22
Last Quarter
Mar 1
New
Mar 8
First Quarter

Hourly Weather History & Observations

Time (CST) Temp. Windchill Dew Point Humidity Pressure Visibility Wind Dir Wind Speed Gust Speed Precip Events Conditions
12:48 AM 35.6 °F 29.2 °F 33.8 °F 93% 29.82 in 8.0 mi NW 8.1 mph - 0.01 in Rain Light Rain
12:53 AM 35.1 °F 28.6 °F 34.0 °F 96% 29.80 in 9.0 mi NW 8.1 mph - 0.01 in Rain Light Rain
1:53 AM 35.1 °F 29.3 °F 33.1 °F 92% 29.80 in 10.0 mi WNW 6.9 mph - 0.00 in Rain Light Rain
2:53 AM 35.1 °F 31.0 °F 33.1 °F 92% 29.81 in 10.0 mi WNW 4.6 mph - 0.00 in   Overcast
3:53 AM 35.1 °F 30.1 °F 32.0 °F 89% 29.83 in 10.0 mi Variable 5.8 mph - N/A   Overcast
4:39 AM 36.0 °F 30.3 °F 33.1 °F 89% 29.85 in 10.0 mi WNW 6.9 mph - N/A   Overcast
4:53 AM 36.0 °F 31.1 °F 33.1 °F 89% 29.84 in 10.0 mi NW 5.8 mph - N/A   Overcast
5:27 AM 36.0 °F 29.6 °F 32.0 °F 86% 29.86 in 10.0 mi NW 8.1 mph - N/A   Mostly Cloudy
5:46 AM 35.1 °F 29.3 °F 30.9 °F 85% 29.87 in 10.0 mi NW 6.9 mph - N/A   Scattered Clouds
5:53 AM 35.1 °F 30.1 °F 30.9 °F 85% 29.86 in 10.0 mi NW 5.8 mph - N/A   Mostly Cloudy
6:53 AM 36.0 °F 28.5 °F 32.0 °F 86% 29.88 in 10.0 mi NW 10.4 mph - N/A   Overcast
7:53 AM 36.0 °F 30.3 °F 32.0 °F 86% 29.92 in 10.0 mi Variable 6.9 mph - N/A   Overcast
8:53 AM 39.0 °F 33.4 °F 34.0 °F 82% 29.93 in 10.0 mi WNW 8.1 mph - N/A   Overcast
9:49 AM 42.8 °F 35.8 °F 33.8 °F 70% 29.96 in 10.0 mi NW 13.8 mph 20.7 mph N/A   Scattered Clouds
9:53 AM 42.1 °F 35.7 °F 33.1 °F 70% 29.94 in 10.0 mi NW 11.5 mph 23.0 mph N/A   Partly Cloudy
10:53 AM 46.9 °F - 30.9 °F 54% 29.92 in 10.0 mi WNW 9.2 mph 18.4 mph N/A   Clear
11:53 AM 51.1 °F - 28.9 °F 43% 29.88 in 10.0 mi NW 10.4 mph 23.0 mph N/A   Clear
12:53 PM 54.0 °F - 28.0 °F 37% 29.86 in 10.0 mi NW 12.7 mph 24.2 mph N/A   Clear
1:53 PM 55.0 °F - 28.0 °F 35% 29.86 in 10.0 mi NW 11.5 mph 23.0 mph N/A   Clear
2:53 PM 55.9 °F - 27.0 °F 33% 29.85 in 10.0 mi NW 8.1 mph 21.9 mph N/A   Clear
3:53 PM 55.0 °F - 28.0 °F 35% 29.87 in 10.0 mi WNW 8.1 mph - N/A   Clear
4:53 PM 53.1 °F - 28.9 °F 40% 29.88 in 10.0 mi WNW 6.9 mph - N/A   Clear
5:53 PM 48.0 °F - 30.9 °F 52% 29.91 in 10.0 mi West 3.5 mph - N/A   Clear
6:53 PM 42.1 °F 40.2 °F 34.0 °F 73% 29.92 in 10.0 mi WNW 3.5 mph - N/A   Clear
7:53 PM 42.1 °F 39.2 °F 33.1 °F 70% 29.93 in 10.0 mi West 4.6 mph - N/A   Clear
8:53 PM 39.0 °F 36.8 °F 33.1 °F 79% 29.94 in 10.0 mi West 3.5 mph - N/A   Clear
9:53 PM 39.0 °F 36.8 °F 33.1 °F 79% 29.95 in 10.0 mi West 3.5 mph - N/A   Clear
10:53 PM 39.9 °F 36.7 °F 33.1 °F 77% 29.96 in 10.0 mi West 4.6 mph - N/A   Clear
11:53 PM 41.0 °F - 33.1 °F 73% 29.96 in 10.0 mi Calm Calm - N/A   Clear